Location: Burzi?i
(45.0869°N, 16.0577°E)
Time: 10:47:42
(UTC+00:00)

CZ-4B R/B - Pass Details

Date: 29 October 2020
Orbit: 808 x 882 km, 99.1° (Epoch: 27 November)

Event Time Altitude Azimuth Distance (km) Brightness Sun altitude
Rises 16:40:30 0° 178° (S) 3,451 6.5 -9.9°
Reaches altitude 10° 16:42:58 10° 184° (S) 2,510 5.8 -10.3°
Maximum altitude 16:48:23 51° 259° (W) 1,071 4.2 -11.3°
Drops below altitude 10° 16:53:45 10° 336° (NNW) 2,483 5.9 -12.2°
Sets 16:56:11 0° 341° (NNW) 3,411 6.5 -12.6°
